Location: Jackson
(42.2460°N, 84.4010°W)
Time: 23:06:59
(UTC-04:00)

Vanguard 2 Rocket - Pass Details

Date: 16 February 2026
Orbit: 553 x 3286 km, 32.9° (Epoch: 16 March)

Event Time Altitude Azimuth Distance (km) Brightness Sun altitude
Rises 19:24:46 0° 273° (W) 5,253 12.7 -14.2°
Reaches altitude 10° 19:30:12 10° 257° (WSW) 3,655 11.3 -15.2°
Maximum altitude 19:35:21 17° 221° (SW) 2,578 9.8 -16.1°
Drops below altitude 10° 19:39:17 10° 182° (S) 2,627 9.3 -16.8°
Sets 19:42:18 0° 161° (SSE) 3,253 9.6 -17.4°
